User: anonymous   Login
Location: Newark
(44.3333°N, 7.6167°E)
Time: 11:09:54
(UTC+00:00)
Language:

CUBEBUG 2 - Orbit

View from above orbital plane
View from above orbital plane
View from above satellite
View from above satellite

Ground track
Ground track

The orbit data is extracted from the following two-line orbital elements,

1 39440U 13066AA  20023.12490511  .00000180  00000-0  31761-4 0  9997
2 39440  97.6172  13.8362 0081616  95.3040 265.7489 14.75946482332199
Epoch (UTC): 23 January 2020 02:59:51
Eccentricity: 0.0081616
inclination: 97.6172°
perigee height: 585 km
apogee height: 699 km
right ascension of ascending node: 13.8362°
argument of perigee: 95.3040°
revolutions per day: 14.75946482
mean anomaly at epoch: 265.7489°
orbit number at epoch: 33219

The dashed part of the orbit path shows where the satellite is in the earth's shadow,  

DLR